• en Belgique
  • Liste des pays
  • À 7 jours
  • Température de l'eau
  • Carte satellitaire
  • Carte météo
  • Widgets météo
  • user-avatar
    Se connecter

    Météo par heure à Amanzimtoti

    Ce jour, 23 Novembre, Jeudi

    Heure Température Précipitation Vent Pression Humidité
    00:00 +19°C° 0,2 mm 5 m/s 761 mmHg 94%
    01:00 +19°C° 0,2 mm 4 m/s 761 mmHg 94%
    02:00 +19°C° 0,2 mm 4 m/s 761 mmHg 94%
    03:00 +19°C° 0,1 mm 4 m/s 761 mmHg 94%
    04:00 +19°C° 0,1 mm 4 m/s 761 mmHg 94%
    05:00 +19°C° 0,1 mm 4 m/s 761 mmHg 94%
    06:00 +19°C° 0,2 mm 3 m/s 761 mmHg 93%
    07:00 +19°C° 0,2 mm 3 m/s 762 mmHg 93%
    08:00 +18°C° 0 mm 2 m/s 762 mmHg 88%
    09:00 +19°C° 0 mm 2 m/s 762 mmHg 86%
    10:00 +19°C° 0 mm 2 m/s 761 mmHg 84%
    11:00 +20°C° 0 mm 2 m/s 761 mmHg 81%
    12:00 +20°C° 0 mm 2 m/s 761 mmHg 80%
    13:00 +21°C° 0 mm 3 m/s 760 mmHg 78%
    14:00 +21°C° 0 mm 4 m/s 760 mmHg 77%
    15:00 +21°C° 0,1 mm 4 m/s 760 mmHg 79%
    16:00 +20°C° 0,1 mm 4 m/s 759 mmHg 82%
    17:00 +20°C° 0,1 mm 4 m/s 759 mmHg 85%
    18:00 +20°C° 0,2 mm 4 m/s 759 mmHg 87%
    19:00 +19°C° 0,2 mm 4 m/s 760 mmHg 89%
    20:00 +19°C° 0,2 mm 4 m/s 760 mmHg 92%
    21:00 +19°C° 0,1 mm 4 m/s 760 mmHg 92%
    22:00 +19°C° 0,1 mm 4 m/s 760 mmHg 92%
    23:00 +19°C° 0,1 mm 4 m/s 760 mmHg 92%

    Demain, 24 Novembre, Vendredi

    Heure Température Précipitation Vent Pression Humidité
    00:00 +19°C° 0 mm 4 m/s 760 mmHg 92%
    01:00 +19°C° 0 mm 4 m/s 760 mmHg 93%
    02:00 +19°C° 0 mm 4 m/s 759 mmHg 93%
    03:00 +19°C° 0 mm 4 m/s 759 mmHg 94%
    04:00 +18°C° 0 mm 4 m/s 759 mmHg 94%
    05:00 +18°C° 0 mm 4 m/s 758 mmHg 95%
    06:00 +19°C° 0,1 mm 4 m/s 758 mmHg 92%
    07:00 +20°C° 0,1 mm 4 m/s 758 mmHg 88%
    08:00 +22°C° 0,1 mm 4 m/s 758 mmHg 84%
    09:00 +22°C° 0,1 mm 4 m/s 757 mmHg 82%
    10:00 +23°C° 0,1 mm 4 m/s 757 mmHg 81%
    11:00 +25°C° 0,1 mm 5 m/s 757 mmHg 79%
    12:00 +25°C° 0,2 mm 5 m/s 756 mmHg 81%
    13:00 +23°C° 0,2 mm 5 m/s 755 mmHg 84%
    14:00 +23°C° 0,2 mm 5 m/s 755 mmHg 87%
    15:00 +23°C° 0,6 mm 5 m/s 755 mmHg 90%
    16:00 +22°C° 0,6 mm 5 m/s 755 mmHg 93%
    17:00 +22°C° 0,6 mm 5 m/s 755 mmHg 96%
    18:00 +21°C° 0,9 mm 5 m/s 756 mmHg 96%
    19:00 +21°C° 0,9 mm 5 m/s 757 mmHg 96%
    20:00 +21°C° 0,9 mm 5 m/s 758 mmHg 95%
    21:00 +20°C° 0,5 mm 5 m/s 759 mmHg 94%
    22:00 +20°C° 0,5 mm 6 m/s 759 mmHg 93%
    23:00 +19°C° 0,5 mm 6 m/s 760 mmHg 92%

    Après-demain, 25 Novembre, Samedi

    Heure Température Précipitation Vent Pression Humidité
    00:00 +19°C° 0,5 mm 6 m/s 759 mmHg 92%
    01:00 +19°C° 0,5 mm 6 m/s 759 mmHg 92%
    02:00 +17°C° 0,5 mm 6 m/s 759 mmHg 92%
    03:00 +17°C° 0,7 mm 6 m/s 759 mmHg 92%
    04:00 +17°C° 0,7 mm 6 m/s 759 mmHg 92%
    05:00 +17°C° 0,7 mm 6 m/s 759 mmHg 92%
    06:00 +17°C° 0,6 mm 5 m/s 760 mmHg 92%
    07:00 +17°C° 0,6 mm 5 m/s 760 mmHg 92%
    08:00 +18°C° 0,6 mm 4 m/s 760 mmHg 92%
    09:00 +18°C° 0,6 mm 4 m/s 760 mmHg 91%
    10:00 +18°C° 0,6 mm 4 m/s 760 mmHg 91%
    11:00 +19°C° 0,6 mm 4 m/s 760 mmHg 90%
    12:00 +20°C° 0,4 mm 3 m/s 760 mmHg 87%
    13:00 +21°C° 0,4 mm 3 m/s 759 mmHg 84%
    14:00 +21°C° 0,4 mm 3 m/s 759 mmHg 81%
    15:00 +21°C° 0,3 mm 3 m/s 758 mmHg 85%
    16:00 +20°C° 0,3 mm 3 m/s 758 mmHg 88%
    17:00 +20°C° 0,3 mm 2 m/s 757 mmHg 92%
    18:00 +19°C° 0,1 mm 2 m/s 758 mmHg 92%
    19:00 +19°C° 0,1 mm 2 m/s 758 mmHg 93%
    20:00 +20°C° 0,1 mm 1 m/s 758 mmHg 94%
    21:00 +20°C° 0,1 mm 1 m/s 758 mmHg 94%
    22:00 +20°C° 0,1 mm 1 m/s 758 mmHg 94%
    23:00 +20°C° 0,1 mm 1 m/s 758 mmHg 94%

    26 Novembre, Dimanche

    Heure Température Précipitation Vent Pression Humidité
    00:00 +19°C° 0 mm 1 m/s 757 mmHg 94%
    01:00 +19°C° 0 mm 1 m/s 757 mmHg 95%
    02:00 +18°C° 0 mm 1 m/s 756 mmHg 95%
    03:00 +18°C° 0 mm 1 m/s 756 mmHg 95%
    04:00 +18°C° 0 mm 1 m/s 756 mmHg 95%
    05:00 +16°C° 0 mm 1 m/s 755 mmHg 95%
    06:00 +20°C° 0 mm 1 m/s 756 mmHg 87%
    07:00 +22°C° 0 mm 1 m/s 756 mmHg 80%
    08:00 +25°C° 0 mm 1 m/s 756 mmHg 73%
    09:00 +25°C° 0 mm 1 m/s 756 mmHg 70%
    10:00 +26°C° 0 mm 2 m/s 756 mmHg 67%
    11:00 +27°C° 0 mm 2 m/s 755 mmHg 64%
    12:00 +27°C° 0 mm 2 m/s 755 mmHg 66%
    13:00 +27°C° 0 mm 3 m/s 755 mmHg 68%
    14:00 +27°C° 0 mm 3 m/s 754 mmHg 70%
    15:00 +25°C° 0,3 mm 3 m/s 755 mmHg 76%
    16:00 +23°C° 0,3 mm 4 m/s 755 mmHg 83%
    17:00 +21°C° 0,3 mm 4 m/s 756 mmHg 89%
    18:00 +21°C° 1,4 mm 5 m/s 757 mmHg 90%
    19:00 +20°C° 1,4 mm 6 m/s 758 mmHg 91%
    20:00 +20°C° 1,4 mm 6 m/s 759 mmHg 93%
    21:00 +20°C° 0,9 mm 7 m/s 759 mmHg 92%
    22:00 +18°C° 0,9 mm 7 m/s 760 mmHg 92%
    23:00 +18°C° 0,9 mm 7 m/s 760 mmHg 92%

    27 Novembre, Lundi

    Heure Température Précipitation Vent Pression Humidité
    00:00 +18°C° 0,2 mm 8 m/s 760 mmHg 92%
    01:00 +17°C° 0,2 mm 8 m/s 760 mmHg 92%
    02:00 +17°C° 0,2 mm 9 m/s 760 mmHg 92%
    03:00 +16°C° 0,1 mm 9 m/s 760 mmHg 91%
    04:00 +16°C° 0,1 mm 9 m/s 761 mmHg 91%
    05:00 +15°C° 0,1 mm 9 m/s 761 mmHg 90%
    06:00 +16°C° 0,1 mm 9 m/s 762 mmHg 84%
    07:00 +17°C° 0,1 mm 8 m/s 762 mmHg 77%
    08:00 +18°C° 0,1 mm 8 m/s 763 mmHg 71%
    09:00 +21°C° 0,1 mm 8 m/s 763 mmHg 64%
    10:00 +22°C° 0,1 mm 7 m/s 763 mmHg 57%
    11:00 +24°C° 0,1 mm 7 m/s 763 mmHg 51%
    12:00 +23°C° 0 mm 7 m/s 762 mmHg 56%
    13:00 +22°C° 0 mm 6 m/s 762 mmHg 61%
    14:00 +21°C° 0 mm 6 m/s 761 mmHg 67%
    15:00 +20°C° 0,1 mm 6 m/s 761 mmHg 72%
    16:00 +19°C° 0,1 mm 5 m/s 761 mmHg 78%
    17:00 +18°C° 0,1 mm 4 m/s 762 mmHg 84%
    18:00 +18°C° 0 mm 4 m/s 762 mmHg 85%
    19:00 +18°C° 0 mm 3 m/s 762 mmHg 86%
    20:00 +17°C° 0 mm 3 m/s 763 mmHg 87%
    21:00 +17°C° 0 mm 3 m/s 763 mmHg 88%
    22:00 +17°C° 0 mm 2 m/s 763 mmHg 88%
    23:00 +17°C° 0 mm 2 m/s 763 mmHg 88%

    28 Novembre, Mardi

    Heure Température Précipitation Vent Pression Humidité
    00:00 +18°C° 0 mm 1 m/s 763 mmHg 89%
    01:00 +18°C° 0 mm 1 m/s 762 mmHg 90%
    02:00 +18°C° 0 mm 1 m/s 762 mmHg 91%
    03:00 +18°C° 0 mm 1 m/s 761 mmHg 91%
    04:00 +16°C° 0 mm 1 m/s 761 mmHg 92%
    05:00 +16°C° 0 mm 1 m/s 761 mmHg 92%
    06:00 +18°C° 0 mm 2 m/s 761 mmHg 86%
    07:00 +19°C° 0 mm 3 m/s 760 mmHg 79%
    08:00 +21°C° 0 mm 4 m/s 760 mmHg 72%
    09:00 +23°C° 0 mm 4 m/s 759 mmHg 67%
    10:00 +25°C° 0 mm 5 m/s 758 mmHg 62%
    11:00 +27°C° 0 mm 6 m/s 757 mmHg 56%
    12:00 +28°C° 0 mm 6 m/s 757 mmHg 57%
    13:00 +28°C° 0 mm 7 m/s 756 mmHg 57%
    14:00 +28°C° 0 mm 7 m/s 755 mmHg 58%
    15:00 +27°C° 0 mm 7 m/s 755 mmHg 63%
    16:00 +26°C° 0 mm 7 m/s 755 mmHg 67%
    17:00 +24°C° 0 mm 6 m/s 755 mmHg 72%
    18:00 +23°C° 0 mm 6 m/s 755 mmHg 79%
    19:00 +21°C° 0 mm 6 m/s 756 mmHg 85%
    20:00 +20°C° 0 mm 5 m/s 756 mmHg 92%
    21:00 +19°C° 0 mm 4 m/s 756 mmHg 93%
    22:00 +19°C° 0 mm 4 m/s 756 mmHg 93%
    23:00 +19°C° 0 mm 3 m/s 757 mmHg 93%
    Voir plus